| time (UTC) | temp F | wind direction | speed knots | gust knots | rain 1hr in | rain 24hr in | rain mn in | humidity % | barometer mb |
| 20260505022517 | 56 | 0.0 | 0.9 | 0.00 | 0.00 | 0.00 | 71 | 1003.0 | |
| 20260505022057 | 56 | 0.0 | 0.0 | 0.00 | 0.00 | 0.00 | 70 | 1003.0 | |
| 20260505021516 | 56 | 0.0 | 0.0 | 0.00 | 0.00 | 0.00 | 70 | 1003.0 | |
| 20260505021017 | 56 | 0.0 | 0.9 | 0.00 | 0.00 | 0.00 | 69 | 1003.0 | |
| 20260505020517 | 57 | 0.0 | 0.9 | 0.00 | 0.00 | 0.00 | 68 | 1003.1 | |
| 20260505020036 | 57 | 0.0 | 0.9 | 0.00 | 0.00 | 0.00 | 67 | 1003.2 | |
| 20260505015516 | 58 | 0.0 | 0.9 | 0.00 | 0.00 | 0.00 | 67 | 1003.2 | |
| 20260505015016 | 58 | 0.0 | 0.9 | 0.00 | 0.00 | 0.00 | 66 | 1003.2 | |
| 20260505014516 | 58 | 0.0 | 0.9 | 0.00 | 0.00 | 0.00 | 65 | 1003.2 | |
| 20260505014016 | 59 | 0.0 | 0.9 | 0.00 | 0.00 | 0.00 | 65 | 1003.3 | |
| 20260505013516 | 59 | 0.0 | 0.9 | 0.00 | 0.00 | 0.00 | 64 | 1003.3 | |
| 20260505013016 | 60 | 0.0 | 0.9 | 0.00 | 0.00 | 0.00 | 63 | 1003.3 | |
| 20260505012516 | 61 | 0.0 | 0.9 | 0.00 | 0.00 | 0.00 | 61 | 1003.3 | |
| 20260505012017 | 61 | 0.0 | 0.9 | 0.00 | 0.00 | 0.00 | 59 | 1003.3 | |
| 20260505011517 | 62 | 0.0 | 0.9 | 0.00 | 0.00 | 0.00 | 58 | 1003.2 | |
| 20260505011016 | 62 | 0.0 | 0.9 | 0.00 | 0.00 | 0.00 | 57 | 1003.1 | |
| 20260505010516 | 63 | 0.0 | 0.9 | 0.00 | 0.00 | 0.00 | 57 | 1003.1 | |
| 20260505010016 | 63 | 0.0 | 0.9 | 0.00 | 0.00 | 0.00 | 56 | 1002.9 | |
| 20260505005516 | 64 | 0.0 | 2.6 | 0.00 | 0.00 | 0.00 | 56 | 1003.0 | |
| 20260505005016 | 64 | 0 | 0.9 | 1.7 | 0.00 | 0.00 | 0.00 | 55 | 1002.9 |
| 20260505004516 | 65 | 0.0 | 0.9 | 0.00 | 0.00 | 0.00 | 53 | 1002.9 | |
| 20260505004016 | 66 | 0.0 | 0.9 | 0.00 | 0.00 | 0.00 | 52 | 1002.9 | |
| 20260505003516 | 67 | 0.0 | 0.9 | 0.00 | 0.00 | 0.00 | 50 | 1003.0 | |
| 20260505003016 | 68 | 0.0 | 0.9 | 0.00 | 0.00 | 0.00 | 49 | 1003.0 | |
| 20260505002516 | 68 | 0.0 | 0.0 | 0.00 | 0.00 | 0.00 | 48 | 1003.0 | |
| 20260505002016 | 69 | 0.0 | 1.7 | 0.00 | 0.00 | 0.00 | 46 | 1003.0 | |
| 20260505001516 | 69 | 0.0 | 1.7 | 0.00 | 0.00 | 0.00 | 45 | 1003.1 | |
| 20260505001016 | 70 | 0 | 0.9 | 2.6 | 0.00 | 0.00 | 0.00 | 44 | 1003.0 |
| 20260505000516 | 71 | 0 | 0.9 | 1.7 | 0.00 | 0.00 | 0.00 | 44 | 1003.0 |
| 20260505000016 | 71 | 0.0 | 1.7 | 0.00 | 0.00 | 0.00 | 43 | 1003.0 | |
| 20260504235516 | 71 | 0 | 0.9 | 1.7 | 0.00 | 0.00 | 0.00 | 41 | 1003.0 |
| 20260504235016 | 71 | 0 | 1.7 | 4.3 | 0.00 | 0.00 | 0.00 | 40 | 1002.9 |
| 20260504234516 | 72 | 0 | 1.7 | 3.5 | 0.00 | 0.00 | 0.00 | 40 | 1002.8 |
| 20260504234016 | 72 | 0 | 1.7 | 3.5 | 0.00 | 0.00 | 0.00 | 39 | 1002.9 |
| 20260504233516 | 72 | 0 | 2.6 | 4.3 | 0.00 | 0.00 | 0.00 | 38 | 1002.8 |
| 20260504233036 | 73 | 0 | 2.6 | 5.2 | 0.00 | 0.00 | 0.00 | 37 | 1002.7 |
| 20260504232516 | 73 | 0 | 1.7 | 3.5 | 0.00 | 0.00 | 0.00 | 37 | 1002.7 |
| 20260504232016 | 73 | 0 | 2.6 | 5.2 | 0.00 | 0.00 | 0.00 | 36 | 1002.6 |
| 20260504231516 | 74 | 0 | 2.6 | 7.8 | 0.00 | 0.00 | 0.00 | 36 | 1002.7 |
| 20260504231016 | 74 | 0 | 3.5 | 10.4 | 0.00 | 0.00 | 0.00 | 36 | 1002.7 |
| 20260504230516 | 74 | 0 | 4.3 | 11.3 | 0.00 | 0.00 | 0.00 | 36 | 1002.7 |
| 20260504230016 | 74 | 0 | 1.7 | 4.3 | 0.00 | 0.00 | 0.00 | 38 | 1002.6 |
| 20260504225516 | 74 | 0 | 1.7 | 7.0 | 0.00 | 0.00 | 0.00 | 38 | 1002.6 |
| 20260504225016 | 75 | 0 | 1.7 | 4.3 | 0.00 | 0.00 | 0.00 | 36 | 1002.6 |
| 20260504224516 | 75 | 0 | 2.6 | 5.2 | 0.00 | 0.00 | 0.00 | 37 | 1002.6 |
| 20260504224016 | 75 | 0 | 3.5 | 10.4 | 0.00 | 0.00 | 0.00 | 35 | 1002.6 |
| 20260504223516 | 75 | 0 | 5.2 | 11.3 | 0.00 | 0.00 | 0.00 | 35 | 1002.6 |
| 20260504223016 | 75 | 0 | 4.3 | 9.6 | 0.00 | 0.00 | 0.00 | 35 | 1002.7 |
| 20260504222516 | 75 | 0 | 5.2 | 12.2 | 0.00 | 0.00 | 0.00 | 34 | 1002.7 |
| 20260504222016 | 76 | 0 | 5.2 | 12.2 | 0.00 | 0.00 | 0.00 | 35 | 1002.6 |
| 20260504221516 | 76 | 0 | 5.2 | 13.0 | 0.00 | 0.00 | 0.00 | 33 | 1002.7 |
| 20260504221016 | 75 | 0 | 5.2 | 10.4 | 0.00 | 0.00 | 0.00 | 34 | 1002.7 |
| 20260504220516 | 75 | 0 | 5.2 | 13.9 | 0.00 | 0.00 | 0.00 | 34 | 1002.7 |
| 20260504220016 | 75 | 0 | 5.2 | 12.2 | 0.00 | 0.00 | 0.00 | 36 | 1002.8 |
| 20260504215636 | 76 | 0 | 7.0 | 12.2 | 0.00 | 0.00 | 0.00 | 34 | 1002.8 |
| 20260504215016 | 76 | 0 | 7.0 | 14.8 | 0.00 | 0.00 | 0.00 | 34 | 1002.9 |
| 20260504214516 | 76 | 0 | 6.1 | 13.9 | 0.00 | 0.00 | 0.00 | 34 | 1002.9 |
| 20260504214036 | 76 | 0 | 7.0 | 15.6 | 0.00 | 0.00 | 0.00 | 35 | 1003.1 |
| 20260504213516 | 76 | 0 | 7.0 | 17.4 | 0.00 | 0.00 | 0.00 | 33 | 1003.1 |
| 20260504213016 | 76 | 0 | 5.2 | 14.8 | 0.00 | 0.00 | 0.00 | 35 | 1002.9 |
| 20260504212516 | 76 | 0 | 7.0 | 12.2 | 0.00 | 0.00 | 0.00 | 34 | 1003.0 |
| 20260504212016 | 76 | 0 | 5.2 | 10.4 | 0.00 | 0.00 | 0.00 | 35 | 1003.2 |
| 20260504211516 | 76 | 0 | 7.0 | 13.9 | 0.00 | 0.00 | 0.00 | 35 | 1003.1 |
| 20260504211016 | 76 | 0 | 6.1 | 14.8 | 0.00 | 0.00 | 0.00 | 35 | 1003.3 |
| 20260504210516 | 76 | 0 | 7.8 | 15.6 | 0.00 | 0.00 | 0.00 | 36 | 1003.2 |
| 20260504210016 | 76 | 0 | 5.2 | 13.0 | 0.00 | 0.00 | 0.00 | 36 | 1003.3 |
| 20260504205516 | 76 | 0 | 7.0 | 13.0 | 0.00 | 0.00 | 0.00 | 35 | 1003.3 |
| 20260504205036 | 76 | 0 | 7.0 | 13.9 | 0.00 | 0.00 | 0.00 | 38 | 1003.2 |
| 20260504204536 | 76 | 0 | 7.0 | 15.6 | 0.00 | 0.00 | 0.00 | 37 | 1003.4 |
| 20260504204016 | 76 | 0 | 7.8 | 15.6 | 0.00 | 0.00 | 0.00 | 36 | 1003.4 |
| 20260504203516 | 76 | 0 | 7.0 | 13.9 | 0.00 | 0.00 | 0.00 | 37 | 1003.5 |
| 20260504203016 | 76 | 0 | 6.1 | 14.8 | 0.00 | 0.00 | 0.00 | 38 | 1003.4 |
| 20260504202536 | 75 | 0 | 7.0 | 13.9 | 0.00 | 0.00 | 0.00 | 37 | 1003.6 |
| 20260504202016 | 75 | 0 | 7.8 | 17.4 | 0.00 | 0.00 | 0.00 | 38 | 1003.6 |
| 20260504201516 | 75 | 0 | 7.8 | 18.2 | 0.00 | 0.00 | 0.00 | 37 | 1003.8 |
| 20260504201016 | 76 | 0 | 7.0 | 16.5 | 0.00 | 0.00 | 0.00 | 36 | 1003.7 |
| 20260504200516 | 75 | 0 | 8.7 | 14.8 | 0.00 | 0.00 | 0.00 | 36 | 1003.8 |
| 20260504200015 | 75 | 0 | 7.0 | 18.2 | 0.00 | 0.00 | 0.00 | 38 | 1003.8 |
| 20260504195516 | 75 | 0 | 7.8 | 23.5 | 0.00 | 0.00 | 0.00 | 40 | 1004.0 |
| 20260504195016 | 75 | 0 | 4.3 | 14.8 | 0.00 | 0.00 | 0.00 | 40 | 1003.9 |
| 20260504194516 | 75 | 0 | 9.6 | 20.9 | 0.00 | 0.00 | 0.00 | 38 | 1004.0 |
| 20260504194016 | 75 | 0 | 6.1 | 15.6 | 0.00 | 0.00 | 0.00 | 38 | 1004.2 |
| 20260504193516 | 75 | 0 | 6.1 | 12.2 | 0.00 | 0.00 | 0.00 | 39 | 1004.1 |
| 20260504193016 | 75 | 0 | 8.7 | 17.4 | 0.00 | 0.00 | 0.00 | 39 | 1004.3 |
| 20260504192516 | 75 | 0 | 9.6 | 18.2 | 0.00 | 0.00 | 0.00 | 39 | 1004.4 |
| 20260504192036 | 75 | 0 | 6.1 | 17.4 | 0.00 | 0.00 | 0.00 | 39 | 1004.3 |
| 20260504191516 | 75 | 0 | 7.0 | 13.0 | 0.00 | 0.00 | 0.00 | 38 | 1004.5 |
| 20260504191016 | 74 | 0 | 7.0 | 17.4 | 0.00 | 0.00 | 0.00 | 39 | 1004.5 |
| 20260504190516 | 74 | 0 | 8.7 | 20.0 | 0.00 | 0.00 | 0.00 | 39 | 1004.7 |
| 20260504190015 | 74 | 0 | 7.8 | 16.5 | 0.00 | 0.00 | 0.00 | 40 | 1004.7 |
| 20260504185536 | 74 | 0 | 8.7 | 19.1 | 0.00 | 0.00 | 0.00 | 39 | 1004.8 |
| 20260504185016 | 74 | 0 | 5.2 | 13.0 | 0.00 | 0.00 | 0.00 | 41 | 1004.7 |
| 20260504184518 | 74 | 0 | 7.8 | 14.8 | 0.00 | 0.00 | 0.00 | 40 | 1004.8 |
| 20260504184038 | 74 | 0 | 7.0 | 17.4 | 0.00 | 0.00 | 0.00 | 44 | 1004.9 |
| 20260504183517 | 73 | 0 | 6.1 | 18.2 | 0.00 | 0.00 | 0.00 | 44 | 1004.9 |
| 20260504183018 | 73 | 0 | 7.0 | 13.0 | 0.00 | 0.00 | 0.00 | 42 | 1005.0 |
| 20260504182518 | 73 | 0 | 7.0 | 16.5 | 0.00 | 0.00 | 0.00 | 44 | 1005.1 |
| 20260504182018 | 73 | 0 | 7.8 | 14.8 | 0.00 | 0.00 | 0.00 | 43 | 1005.2 |
| 20260504181518 | 73 | 0 | 6.1 | 14.8 | 0.00 | 0.00 | 0.00 | 42 | 1005.3 |
| 20260504181018 | 73 | 0 | 7.8 | 13.9 | 0.00 | 0.00 | 0.00 | 43 | 1005.2 |
| 20260504180518 | 73 | 0 | 6.1 | 12.2 | 0.00 | 0.00 | 0.00 | 45 | 1005.3 |
| 20260504180018 | 73 | 0 | 5.2 | 13.9 | 0.00 | 0.00 | 0.00 | 43 | 1005.4 |
| 20260504175518 | 73 | 0 | 7.0 | 17.4 | 0.00 | 0.00 | 0.00 | 45 | 1005.4 |
| 20260504175037 | 72 | 0 | 7.0 | 14.8 | 0.00 | 0.00 | 0.00 | 44 | 1005.3 |
| 20260504174518 | 73 | 0 | 6.1 | 12.2 | 0.00 | 0.00 | 0.00 | 45 | 1005.5 |
| 20260504174018 | 73 | 0 | 6.1 | 14.8 | 0.00 | 0.00 | 0.00 | 45 | 1005.4 |
| 20260504173517 | 73 | 0 | 6.1 | 11.3 | 0.00 | 0.00 | 0.00 | 46 | 1005.5 |
| 20260504173157 | 73 | 0 | 7.0 | 15.6 | 0.00 | 0.00 | 0.00 | 45 | 1005.5 |
| 20260504172517 | 72 | 0 | 5.2 | 11.3 | 0.00 | 0.00 | 0.00 | 45 | 1005.5 |
| 20260504172018 | 72 | 0 | 8.7 | 15.6 | 0.00 | 0.00 | 0.00 | 46 | 1005.5 |
| 20260504171518 | 72 | 0 | 5.2 | 11.3 | 0.00 | 0.00 | 0.00 | 47 | 1005.5 |
| 20260504171017 | 72 | 0 | 6.1 | 16.5 | 0.00 | 0.00 | 0.00 | 47 | 1005.6 |
| 20260504170518 | 71 | 0 | 7.0 | 16.5 | 0.00 | 0.00 | 0.00 | 49 | 1005.6 |
| 20260504151017 | 66 | 0 | 8.7 | 22.6 | 0.00 | 0.00 | 0.00 | 50 | 1006.3 |
| 20260504150517 | 66 | 0 | 9.6 | 22.6 | 0.00 | 0.00 | 0.00 | 50 | 1006.2 |
| 20260504141017 | 63 | 0 | 6.1 | 19.1 | 0.00 | 0.00 | 0.00 | 52 | 1006.4 |
| 20260504140517 | 62 | 0 | 7.8 | 16.5 | 0.00 | 0.00 | 0.00 | 52 | 1006.4 |
| 20260504130517 | 59 | 0 | 6.1 | 14.8 | 0.00 | 0.00 | 0.00 | 55 | 1007.0 |
| 20260504110517 | 52 | 0 | 7.8 | 13.9 | 0.00 | 0.00 | 0.00 | 58 | 1006.9 |
| 20260504100517 | 51 | 0 | 5.2 | 16.5 | 0.00 | 0.00 | 0.00 | 59 | 1006.9 |
| 20260504081517 | 51 | 0 | 5.2 | 10.4 | 0.00 | 0.00 | 0.00 | 60 | 1007.8 |
| 20260504081037 | 50 | 0 | 4.3 | 9.6 | 0.00 | 0.00 | 0.00 | 61 | 1007.9 |
| 20260504080556 | 50 | 0 | 5.2 | 14.8 | 0.00 | 0.00 | 0.00 | 61 | 1007.8 |
| 20260504050516 | 51 | 0 | 3.5 | 8.7 | 0.00 | 0.00 | 0.00 | 60 | 1008.9 |
| 20260504050016 | 51 | 0 | 3.5 | 9.6 | 0.00 | 0.00 | 0.00 | 60 | 1008.9 |
| 20260504045516 | 51 | 0 | 3.5 | 7.8 | 0.00 | 0.00 | 0.00 | 60 | 1009.0 |
| 20260504045016 | 52 | 0 | 2.6 | 7.0 | 0.00 | 0.00 | 0.00 | 59 | 1008.9 |
| 20260504044516 | 52 | 0 | 2.6 | 5.2 | 0.00 | 0.00 | 0.00 | 59 | 1008.9 |
| 20260504044016 | 52 | 0 | 4.3 | 9.6 | 0.00 | 0.00 | 0.00 | 59 | 1008.8 |
| 20260504043516 | 52 | 0 | 4.3 | 9.6 | 0.00 | 0.00 | 0.00 | 59 | 1008.9 |
| 20260504043036 | 52 | 0 | 4.3 | 9.6 | 0.00 | 0.00 | 0.00 | 58 | 1008.9 |
| 20260504042516 | 52 | 0 | 2.6 | 7.0 | 0.00 | 0.00 | 0.00 | 58 | 1008.9 |
| 20260504042016 | 52 | 0 | 2.6 | 7.0 | 0.00 | 0.00 | 0.00 | 58 | 1008.9 |
| 20260504041516 | 53 | 0 | 2.6 | 7.8 | 0.00 | 0.00 | 0.00 | 57 | 1009.1 |
| 20260504041016 | 53 | 0 | 2.6 | 4.3 | 0.00 | 0.00 | 0.00 | 57 | 1009.0 |
| 20260504040516 | 53 | 0 | 2.6 | 7.0 | 0.00 | 0.00 | 0.00 | 57 | 1009.1 |
| 20260504040036 | 53 | 0 | 2.6 | 7.0 | 0.00 | 0.00 | 0.00 | 56 | 1009.0 |
| 20260504035517 | 54 | 0 | 2.6 | 5.2 | 0.00 | 0.00 | 0.00 | 56 | 1009.0 |
| 20260504035017 | 54 | 0 | 3.5 | 8.7 | 0.00 | 0.00 | 0.00 | 55 | 1009.0 |
| 20260504034518 | 54 | 0 | 2.6 | 5.2 | 0.00 | 0.00 | 0.00 | 55 | 1008.9 |
| 20260504034015 | 54 | 0 | 3.5 | 7.8 | 0.00 | 0.00 | 0.00 | 55 | 1009.0 |
| 20260504033517 | 54 | 0 | 3.5 | 8.7 | 0.00 | 0.00 | 0.00 | 55 | 1008.9 |
| 20260504033017 | 54 | 0 | 2.6 | 4.3 | 0.00 | 0.00 | 0.00 | 55 | 1008.9 |
| 20260504032518 | 54 | 0 | 2.6 | 5.2 | 0.00 | 0.00 | 0.00 | 55 | 1008.9 |
| 20260504032057 | 54 | 0 | 1.7 | 7.0 | 0.00 | 0.00 | 0.00 | 55 | 1008.9 |
| 20260504031517 | 54 | 0 | 3.5 | 7.8 | 0.00 | 0.00 | 0.00 | 54 | 1008.9 |
| 20260504031018 | 54 | 0 | 2.6 | 7.0 | 0.00 | 0.00 | 0.00 | 54 | 1008.8 |
| 20260504030517 | 54 | 0 | 3.5 | 7.8 | 0.00 | 0.00 | 0.00 | 54 | 1008.9 |
| 20260504030017 | 54 | 0 | 4.3 | 9.6 | 0.00 | 0.00 | 0.00 | 54 | 1008.9 |
| 20260504025538 | 54 | 0 | 6.1 | 11.3 | 0.00 | 0.00 | 0.00 | 54 | 1008.9 |
| 20260504025017 | 54 | 0 | 2.6 | 8.7 | 0.00 | 0.00 | 0.00 | 55 | 1008.9 |
| 20260504024537 | 54 | 0 | 2.6 | 7.0 | 0.00 | 0.00 | 0.00 | 55 | 1009.0 |
| 20260504024037 | 54 | 0 | 2.6 | 7.8 | 0.00 | 0.00 | 0.00 | 55 | 1009.0 |
| 20260504023517 | 54 | 0 | 2.6 | 7.0 | 0.00 | 0.00 | 0.00 | 54 | 1009.0 |
| 20260504023017 | 54 | 0 | 2.6 | 7.0 | 0.00 | 0.00 | 0.00 | 55 | 1009.1 |